Location: ??
(34.7226°N, 135.6259°E)
Time: 07:53:55
(UTC+00:00)

Daily predictions for brighter satellites

Satellite Brightness Start Highest point End
(mag) Time Altitude Azimuth Time Altitude Azimuth Time Altitude Azimuth
ATLAS 3B R/B 3.7 18:06:52 39° ENE 18:06:52 39° ENE 18:11:19 10° NE
Cosmos 1833 Rocket 4.3 18:34:21 26° NNE 18:34:21 26° NNE 18:36:45 10° NNE
Cosmos 1656 4.4 18:51:09 43° SSE 18:51:09 43° SSE 18:54:52 10° SSE
Cosmos 2082 Rocket 2.1 18:57:43 80° E 18:57:43 80° E 19:03:12 10° NNE
DELTA 2 R/B (1) 4.0 19:02:37 50° S 19:02:37 50° S 19:07:09 10° SE
ALOS 3.7 18:58:04 10° NNE 19:02:22 36° E 19:06:39 10° SSE
Meteor 1-24 Rocket 4.5 18:57:08 10° SSE 19:02:31 52° E 19:08:07 10° NNE
CENTAUR R/B 4.3 19:08:28 18° NNW 19:08:28 18° NNW 19:11:26 10° N
Nadezhda 4 Rocket 3.8 19:01:15 10° S 19:07:21 85° W 19:13:31 10° N
ATLAS CENTAUR R/B 4.1 19:06:13 10° SSE 19:08:50 17° ESE 19:11:23 10° ENE
ATLAS CENTAUR Rocket 3.9 19:15:38 16° S 19:15:38 16° S 19:16:57 10° S
CZ-3 R/B 3.7 19:00:01 32° WSW 19:15:12 68° S 19:23:57 10° E
Cosmos 2180 Rocket 4.5 19:13:44 10° NNW 19:20:03 53° WSW 19:25:43 10° SSW
Cosmos 1697 Rocket 2.6 19:19:19 27° NNW 19:22:33 89° ENE 19:28:13 10° SSE
GOES 2 Rocket 4.2 19:26:45 37° SW 19:28:12 45° S 19:34:28 10° ESE
FENGYUN 3A 3.8 19:23:52 10° NNE 19:29:20 76° ESE 19:34:45 10° S
Cosmos 2228 3.0 19:27:18 10° N 19:31:42 83° E 19:36:05 10° S
ADEOS 3.5 19:27:39 10° NNE 19:32:53 86° E 19:38:07 10° SSW
Cosmos 1726 Rocket 4.1 19:28:29 10° N 19:32:55 61° E 19:37:19 10° SSE
SJ-6F 4.2 19:29:12 10° N 19:33:18 71° WNW 19:33:49 62° SW
Gblst 52 Del rocket 4.1 19:32:27 33° SW 19:35:06 86° SE 19:41:08 10° NE
Intercosmos 24 3.4 19:39:28 42° NNW 19:40:32 77° W 19:44:19 10° S
Meteor 2-5 Rocket 3.8 19:35:12 10° SSW 19:40:41 52° W 19:46:21 10° N
Cosmos 1484 Rocket 2.5 19:40:23 10° N 19:44:10 70° WNW 19:47:53 10° SSW
Cosmos 1992 Rocket 3.9 19:40:48 10° NNW 19:46:01 82° WSW 19:51:14 10° SSE
Cosmos 1980 Rocket 2.4 19:40:31 10° NNW 19:46:08 72° ENE 19:51:42 10° SSE
Cosmos 1606 Rocket 3.5 19:44:59 10° NNW 19:49:25 64° W 19:53:50 10° S
Cosmos 1428 Rocket 4.4 19:44:23 10° S 19:50:38 88° W 19:56:51 10° N
SAR-Lupe-4 4.3 19:49:14 10° SSE 19:52:43 54° ENE 19:56:13 10° N
H-2A R/B 3.6 19:50:09 10° SSW 19:52:01 20° SW 19:52:01 20° SW
Cosmos 220 Rocket 4.1 19:51:53 24° NW 19:54:17 52° WSW 19:58:31 10° S
CZ-4B R/B 1.3 19:51:09 10° S 19:54:35 81° WSW 19:58:02 10° NNW
CZ-2C R/B 4.0 19:51:42 10° NNW 19:53:34 18° NW 19:53:34 18° NW
ATLAS 3B R/B 3.4 19:54:11 26° WNW 19:55:53 29° NW 20:01:33 10° N
COSMO-SKYMED 1 3.8 19:51:56 10° SE 19:56:02 44° ENE 20:00:10 10° N
Cosmos 614 Rocket 3.8 19:51:42 10° SSW 19:56:50 71° WNW 20:01:57 10° NNE
ADEOS Rocket 3.3 19:52:08 10° SSW 19:57:02 33° W 20:01:59 10° NNW
ERS-2 2.3 19:57:24 10° S 20:00:54 47° W 20:03:40 15° NNW
SJ-12 3.9 19:58:17 10° NNE 20:02:24 84° ESE 20:06:28 10° S
Cosmos 2026 Rocket 4.0 19:57:42 10° SSW 20:04:01 65° W 20:10:22 10° N
SL-19 R/B 3.6 20:04:02 10° N 20:06:50 54° WNW 20:09:50 10° SSW
Meteor 1-31 Rocket 3.0 20:05:44 10° N 20:09:31 46° WNW 20:13:15 10° SSW
Cosmos 2360 4.5 20:04:22 10° NW 20:09:45 45° WSW 20:15:05 10° S
SAR-Lupe-1 4.0 20:06:52 10° SSE 20:10:29 90° WSW 20:14:07 10° NNW
deb Chang Zheng 4 4.0 20:10:57 10° N 20:14:52 36° WNW 20:18:46 10° SW
Cosmos 1833 Rocket 4.5 20:16:06 12° NW 20:16:06 12° NW 20:17:53 10° NNW
Abrixas rocket 2.9 20:14:09 17° NNW 20:15:59 39° NNE 20:18:40 10° ESE
Cosmos 2322 Rocket 4.1 20:14:13 10° N 20:19:07 29° ENE 20:23:58 10° ESE
METEOR-M 4.4 20:14:05 10° N 20:19:07 44° WNW 20:24:09 10° SW
Cosmos 2278 3.8 20:14:22 10° NNW 20:19:52 54° WSW 20:25:20 10° S
Cosmos 1023 Rocket 4.3 20:15:39 10° SSW 20:20:43 81° WNW 20:25:50 10° NNE
Okean 1-7 Rocket 4.1 20:21:30 10° SSW 20:25:41 36° W 20:29:53 10° NNW
PSLV R/B 4.0 20:22:20 10° SSE 20:26:31 88° ENE 20:30:45 10° NNW
SL-27 R/B 2.4 20:23:11 10° SSW 20:26:46 89° WNW 20:30:23 10° NNE
Cosmos 2058 Rocket 3.3 20:23:17 10° NNW 20:27:36 49° W 20:31:52 10° SSW
BREEZE-M DEB (TANK) 2.2 20:27:08 18° W 20:28:27 30° SW 20:30:27 10° SSE
PSLV R/B 4.5 20:25:58 10° NNE 20:30:02 62° E 20:34:04 10° S
Uosat 12 SS-18 rocket 4.2 20:26:16 10° SW 20:31:11 60° WNW 20:35:32 10° NNE
CZ-4B R/B 3.2 20:28:26 10° N 20:32:27 48° WNW 20:36:37 10° SSW
Cosmos 1190 Rocket 4.0 20:28:59 10° SSW 20:34:10 63° WNW 20:39:21 10° N
ALOS 3.6 20:36:14 10° NNW 20:39:29 19° WNW 20:42:43 10° WSW
Cosmos 2082 Rocket 3.9 20:39:48 10° W 20:42:18 13° NW 20:44:49 10° NNW
SKYMED 2 3.8 20:39:54 10° S 20:44:04 47° W 20:48:15 10° NNW
Cosmos 2292 Rocket 2.8 20:41:48 10° SSW 20:44:48 64° W 20:48:22 10° N
Cosmos 1300 4.5 20:44:24 10° WNW 20:46:10 13° W 20:47:56 10° WSW
ATLAS CENTAUR R/B 2.0 20:43:57 10° WSW 20:47:29 30° NW 20:50:54 10° N
Cosmos 2098 Rocket 3.8 20:42:32 10° SSW 20:48:39 54° W 20:53:34 10° N
Cosmos 1400 Rocket 4.3 20:46:59 10° NW 20:49:27 16° W 20:51:53 10° SW
Cosmos 1626 Rocket 4.0 20:46:06 10° SSW 20:50:18 41° W 20:54:32 10° N
Cosmos 1140 Rocket 3.9 20:47:46 10° SW 20:52:33 40° WNW 20:57:22 10° N
Cosmos 1602 Rocket 3.8 20:49:44 10° SSW 20:54:01 51° W 20:58:23 10° N
Cosmos 407 Rocket 4.2 20:50:08 10° SW 20:54:37 30° WNW 20:59:09 10° N
Envisat 3.2 20:51:16 10° NNE 20:56:23 81° ESE 21:01:27 10° S
SL-16 R/B 2.4 20:50:56 10° NNW 20:56:37 78° ENE 21:02:17 10° SSE
